Location: Santa Maria di Sala
(45.5070°N, 12.0300°E)
Time: 21:08:27
(UTC+01:00)

Tiangong - Visible Passes

Search period start: 24 January 2022 00:00
Search period end: 03 February 2022 00:00
Orbit: 383 x 386 km, 41.5° (Epoch: 23 January)

Date Brightness Start Highest point End Pass type
(mag) Time Alt. Az. Time Alt. Az. Time Alt. Az.
27 Jan 3.7 19:24:00 10° SSW 19:24:50 15° SSW 19:24:50 15° SSW visible
28 Jan 3.3 18:24:57 10° SSW 18:26:55 15° SSE 18:28:03 13° SE visible
29 Jan 2.5 19:00:46 10° SW 19:03:23 28° S 19:03:23 28° S visible
30 Jan 2.9 18:01:22 10° SSW 18:03:53 22° SSE 18:06:24 10° ESE visible
30 Jan 3.5 19:37:20 10° WSW 19:38:41 21° SW 19:38:41 21° SW visible
31 Jan 2.2 18:37:37 10° WSW 18:40:33 35° S 18:41:44 25° SE visible
01 Feb 2.2 19:14:17 10° WSW 19:16:57 37° SSW 19:16:57 37° SSW visible
02 Feb 2.1 18:14:28 10° WSW 18:17:27 39° S 18:19:58 13° ESE visible
02 Feb 3.9 19:51:09 10° WSW 19:52:10 17° WSW 19:52:10 17° WSW visible
